Location: Maccacari
(45.1333°N, 11.1333°E)
Time: 20:02:14
(UTC+00:00)

Tiros 1 despin weight - Pass Details

Date: 27 January 2021
Orbit: 593 x 642 km, 48.2° (Epoch: 26 February)

Event Time Altitude Azimuth Distance (km) Brightness Sun altitude
Rises 17:45:10 0° 290° (WNW) 2,862 ? -15.7°
Reaches altitude 10° 17:47:32 10° 285° (WNW) 1,949 ? -16.2°
Maximum altitude 17:51:51 50° 211° (SSW) 768 ? -16.9°
Enters shadow 17:55:12 16° 140° (SE) 1,589 ? -17.5°
Drops below altitude 10° 17:56:06 10° 136° (SE) 1,921 - -17.6°
Sets 17:58:25 0° 131° (SE) 2,817 - -18.0°
